Waarnemingen

Advertentie
Mijn weer
Putbus, Duitsland (10093): temperatuur & dauwpunt: 16.01.2017 13:00:00 - 22.01.2017 13:00:00 (CET)Putbus, Duitsland (10093): temperatuur 5cm & temperatuur -5cm: 16.01.2017 13:00:00 - 22.01.2017 13:00:00 (CET)Putbus, Duitsland (10093): temperatuur -20cm & temperatuur -100cm: 16.01.2017 13:00:00 - 22.01.2017 13:00:00 (CET)Putbus, Duitsland (10093): windsnelheid & windstoten: 16.01.2017 13:00:00 - 22.01.2017 13:00:00 (CET)Putbus, Duitsland (10093): windrichting: 16.01.2017 13:00:00 - 22.01.2017 13:00:00 (CET)Putbus, Duitsland (10093): luchtdruk: 16.01.2017 13:00:00 - 22.01.2017 13:00:00 (CET)Putbus, Duitsland (10093): zicht: 16.01.2017 13:00:00 - 22.01.2017 13:00:00 (CET)Putbus, Duitsland (10093): Zonneschijnduur: 16.01.2017 13:00:00 - 22.01.2017 13:00:00 (CET)Putbus, Duitsland (10093): neerslag: 16.01.2017 13:00:00 - 22.01.2017 13:00:00 (CET)
Datum & Tijd tt [°C] td [°C] tt 5cm [°C] tt -5cm [°C] tt -20cm [°C] tt -100cm [°C] ff [km/u] ff [kn] fx [km/u] fx [kn] dd ppp [hPa] vv [km] sd [min] rr [mm]
22.01.2017 13:00:00 - - - - - - - - - - - - - - -
22.01.2017 12:00:00 0,7 -0,2 0,8 0,1 0,8 4,2 8 4 15 8 Z 1030,1 9 0 0,0
22.01.2017 11:00:00 0,8 -0,1 0,8 0,1 0,8 4,2 10 5 22 12 Z 1030,7 7 0 0,0
22.01.2017 10:00:00 1,0 0,2 1,0 0,1 0,8 4,2 10 5 19 11 ZZW 1030,8 3,6 0 0,0
22.01.2017 09:00:00 1,0 0,5 0,9 0,1 0,8 4,2 9 5 15 8 ZZW 1030,6 1,8 0 0,0
22.01.2017 08:00:00 0,9 0,5 0,8 0,0 0,8 4,2 7 4 13 7 Z 1030,4 1,2 0 0,0
22.01.2017 07:00:00 1,0 0,5 0,8 0,0 0,8 4,2 7 4 13 7 Z 1030,5 0,7 0 0,0
22.01.2017 06:00:00 1,0 0,6 0,8 0,0 0,8 4,2 7 4 13 7 Z 1030,8 0,5 0 0,0
22.01.2017 05:00:00 1,0 0,6 0,8 0,0 0,8 4,2 5 3 11 6 Z 1031,1 0,3 0 0,0
22.01.2017 04:00:00 1,0 0,5 0,8 0,0 0,8 4,2 5 3 9 5 Z 1031,2 0,2 0 0,0
22.01.2017 03:00:00 1,2 1,0 1,0 0,0 0,8 4,2 5 3 9 5 Z 1031,4 0,2 0 0,0
22.01.2017 02:00:00 1,4 0,8 1,1 0,0 0,8 4,2 6 3 9 5 ZZW 1031,5 0,7 0 0,0
22.01.2017 01:00:00 1,3 0,8 1,1 0,0 0,8 4,2 5 3 14 8 WZW 1031,8 1,4 0 0,0
22.01.2017 00:00:00 1,1 0,6 0,9 0,0 0,8 4,2 7 4 14 8 ZW 1031,9 4,4 0 0,0
21.01.2017 23:00:00 1,1 0,7 1,0 0,0 0,8 4,2 9 5 17 9 ZW 1031,9 1,3 0 0,0
21.01.2017 22:00:00 1,3 0,8 1,2 0,0 0,8 4,2 9 5 17 9 ZW 1031,9 1,2 0 0,0
21.01.2017 21:00:00 1,6 1,0 1,4 0,0 0,8 4,2 8 4 15 8 WZW 1031,8 1,1 0 0,0
21.01.2017 20:00:00 1,8 1,5 1,5 0,0 0,8 4,2 9 5 16 9 ZW 1031,6 1,1 0 0,0
21.01.2017 19:00:00 2,0 1,5 1,7 0,0 0,8 4,2 7 4 13 7 ZW 1031,4 1,0 0 0,0
21.01.2017 18:00:00 2,1 1,5 1,8 0,0 0,8 4,2 6 4 16 9 ZW 1031,3 0,8 0 0,0
21.01.2017 17:00:00 2,1 1,8 1,7 0,0 0,8 4,2 4 2 14 8 ZW 1031,4 1,2 0 0,0
21.01.2017 16:00:00 2,1 1,7 1,9 0,0 0,8 4,2 8 4 14 8 WZW 1031,1 1,0 0 0,0
21.01.2017 15:00:00 2,4 2,2 2,3 0,0 0,8 4,2 10 5 16 9 W 1031,0 0,5 0 0,0
21.01.2017 14:00:00 2,6 2,4 2,8 0,0 0,8 4,2 9 5 17 9 W 1031,1 0,5 0 0,0
21.01.2017 13:00:00 2,6 2,2 2,9 0,0 0,8 4,2 11 6 21 11 WNW 1031,3 0,4 0 0,0
21.01.2017 12:00:00 2,6 2,2 2,8 0,0 0,8 4,2 14 7 21 11 W 1031,4 0,6 0 0,0
21.01.2017 11:00:00 2,5 2,0 2,6 0,0 0,8 4,2 13 7 24 13 W 1031,7 0,5 0 0,0
21.01.2017 10:00:00 2,4 1,9 2,3 0,0 0,8 4,2 12 6 21 12 W 1031,5 0,9 0 0,0
21.01.2017 09:00:00 2,3 1,9 2,0 0,0 0,8 4,2 10 5 18 10 W 1031,1 0,9 0 0,0
21.01.2017 08:00:00 2,0 1,7 1,5 0,0 0,8 4,2 6 3 18 10 W 1030,8 0,4 0 0,0
21.01.2017 07:00:00 2,1 1,9 1,6 0,0 0,8 4,2 10 5 19 11 W 1030,4 0,3 0 0,0
21.01.2017 06:00:00 2,0 1,5 1,6 0,0 0,8 4,2 13 7 23 13 W 1030,5 0,4 0 0,0
21.01.2017 05:00:00 2,1 1,4 1,6 0,0 0,8 4,2 16 9 26 14 W 1030,3 2,2 0 0,0
21.01.2017 04:00:00 2,0 1,2 1,5 0,0 0,8 4,2 17 9 24 13 W 1030,6 2,7 0 0,0
21.01.2017 03:00:00 1,9 1,1 1,4 0,0 0,8 4,3 15 8 27 15 W 1031,0 3,0 0 0,0
21.01.2017 02:00:00 1,9 1,0 1,2 0,0 0,8 4,3 20 11 29 15 W 1031,0 3,1 0 0,0
21.01.2017 01:00:00 2,0 1,1 1,4 0,0 0,8 4,3 18 10 30 16 W 1031,3 3,5 0 0,0
21.01.2017 00:00:00 2,0 1,0 0,9 0,0 0,8 4,3 21 12 29 16 W 1031,6 3,9 0 0,0
20.01.2017 23:00:00 2,3 1,2 1,7 0,0 0,8 4,3 18 10 29 15 WZW 1031,8 5 0 0,0
20.01.2017 22:00:00 2,6 1,4 1,8 0,0 0,8 4,3 20 11 29 16 W 1031,8 6 0 0,0
20.01.2017 21:00:00 2,5 1,3 1,7 0,0 0,8 4,3 19 10 29 15 W 1031,7 6 0 0,0
20.01.2017 20:00:00 2,1 1,1 0,8 0,0 0,8 4,3 23 12 43 23 WZW 1031,5 5 0 0,0
20.01.2017 19:00:00 2,5 1,7 1,7 0,0 0,8 4,3 26 14 35 19 W 1031,4 4,2 0 0,0
20.01.2017 18:00:00 2,4 1,2 1,0 0,0 0,8 4,3 25 14 35 19 W 1031,5 12 0 0,0
20.01.2017 17:00:00 2,9 1,8 1,6 0,0 0,8 4,3 25 13 40 21 W 1031,7 11 0 0,0
20.01.2017 16:00:00 3,3 2,0 2,2 0,0 0,8 4,3 23 12 37 20 W 1031,7 14 8 0,0
20.01.2017 15:00:00 4,2 1,9 3,3 0,0 0,8 4,3 19 11 34 18 W 1031,8 19 60 0,0
20.01.2017 14:00:00 4,7 2,1 4,4 0,0 0,8 4,3 24 13 41 22 W 1031,8 16 60 0,0
20.01.2017 13:00:00 4,2 2,0 3,3 0,0 0,8 4,3 29 16 41 22 W 1031,8 9 60 0,0
20.01.2017 12:00:00 3,6 1,9 3,4 0,0 0,8 4,3 29 15 40 22 W 1032,2 8 60 0,0
20.01.2017 11:00:00 3,0 1,7 2,5 0,0 0,8 4,3 23 13 34 18 W 1032,7 6 21 0,0
20.01.2017 10:00:00 2,4 1,7 1,9 0,0 0,8 4,3 21 12 32 18 W 1033,0 3,3 0 0,0
20.01.2017 09:00:00 2,4 1,8 1,6 0,0 0,8 4,3 23 12 32 18 W 1033,0 2,2 0 0,0
20.01.2017 08:00:00 2,2 1,6 1,6 0,0 0,8 4,3 19 10 26 14 WZW 1033,0 2,5 0 0,0
20.01.2017 07:00:00 1,8 1,4 1,1 0,0 0,8 4,3 17 9 27 15 W 1033,1 1,1 0 0,0
20.01.2017 06:00:00 1,9 1,5 1,1 0,0 0,8 4,3 19 10 31 17 W 1033,4 0,7 0 0,0
20.01.2017 05:00:00 1,7 1,3 1,0 0,0 0,8 4,3 16 9 27 15 W 1033,6 0,3 0 0,0
20.01.2017 04:00:00 1,7 1,2 1,0 0,0 0,8 4,3 16 9 29 16 W 1033,6 0,4 0 0,0
20.01.2017 03:00:00 1,8 1,1 1,0 0,0 0,8 4,3 20 11 29 16 W 1033,6 1,6 0 0,0
20.01.2017 02:00:00 1,6 1,0 0,9 0,0 0,8 4,3 19 10 31 17 W 1033,8 2,2 0 0,0
20.01.2017 01:00:00 1,4 0,9 0,8 0,0 0,8 4,3 23 13 32 18 W 1034,1 1,9 0 0,0
20.01.2017 00:00:00 1,3 0,9 0,7 0,0 0,8 4,3 24 13 34 18 W 1034,4 1,2 0 0,0
19.01.2017 23:00:00 1,1 0,6 0,6 0,0 0,8 4,3 22 12 32 17 WZW 1034,8 0,4 0 0,0
19.01.2017 22:00:00 1,4 0,8 0,6 0,0 0,8 4,3 24 13 36 20 WZW 1034,6 0,7 0 0,0
19.01.2017 21:00:00 1,5 0,9 0,2 0,0 0,8 4,3 22 12 32 17 W 1034,6 2,0 0 0,0
19.01.2017 20:00:00 1,3 0,7 0,0 0,0 0,8 4,3 21 12 32 17 W 1034,6 1,7 0 0,0
19.01.2017 19:00:00 0,9 0,3 0,0 0,0 0,8 4,3 22 12 31 17 WZW 1034,9 1,3 0 0,0
19.01.2017 18:00:00 0,8 0,2 0,0 0,0 0,8 4,3 21 11 30 16 W 1034,9 1,4 0 0,0
19.01.2017 17:00:00 0,6 -0,1 -0,1 0,0 0,8 4,3 21 11 32 17 WZW 1035,1 1,2 0 0,0
19.01.2017 16:00:00 0,5 -0,2 0,0 0,0 0,8 4,3 21 12 31 17 WZW 1035,1 2,7 0 0,0
19.01.2017 15:00:00 0,2 -0,6 0,0 0,0 0,8 4,3 24 13 31 17 WZW 1035,3 1,5 0 0,0
19.01.2017 14:00:00 0,1 -0,8 0,0 0,0 0,8 4,3 24 13 34 18 WZW 1035,5 2,1 0 0,0
19.01.2017 13:00:00 -0,3 -1,3 0,0 0,0 0,8 4,3 27 15 38 21 WZW 1035,8 2,1 0 0,0
19.01.2017 12:00:00 -0,4 -1,7 0,0 0,0 0,8 4,3 29 16 37 20 WZW 1036,0 2,4 0 0,0
19.01.2017 11:00:00 -0,6 -2,1 -0,1 0,0 0,8 4,3 26 14 36 20 WZW 1036,3 4,0 0 0,0
19.01.2017 10:00:00 -0,5 -2,5 -0,3 0,0 0,8 4,3 26 14 33 18 WZW 1036,4 6 0 0,0
19.01.2017 09:00:00 -0,9 -2,0 -0,5 0,0 0,8 4,3 25 14 34 18 WZW 1036,2 2,3 0 0,0
19.01.2017 08:00:00 -0,9 -3,3 -1,2 0,0 0,8 4,3 22 12 29 16 WZW 1036,0 4,3 0 0,0
19.01.2017 07:00:00 -0,7 -3,5 -1,2 0,0 0,8 4,3 20 11 29 16 WZW 1035,6 10 0 0,0
19.01.2017 06:00:00 -0,9 -3,6 -1,3 0,0 0,8 4,3 18 10 34 18 ZW 1035,9 8 0 0,0
19.01.2017 05:00:00 -0,8 -3,2 -1,3 0,0 0,8 4,3 24 13 39 21 WZW 1036,1 7 0 0,0
19.01.2017 04:00:00 -0,8 -3,9 -1,4 0,0 0,8 4,3 28 15 37 20 WZW 1036,6 9 0 0,0
19.01.2017 03:00:00 -1,0 -3,9 -1,5 0,0 0,8 4,3 24 13 35 19 WZW 1037,0 7 0 0,0
19.01.2017 02:00:00 -1,0 -4,0 -1,5 0,0 0,8 4,3 23 13 33 18 WZW 1036,9 9 0 0,0
19.01.2017 01:00:00 -1,1 -4,0 -1,6 0,0 0,8 4,3 19 11 32 17 ZW 1037,0 8 0 0,0
19.01.2017 00:00:00 -1,3 -3,9 -1,6 0,0 0,8 4,3 18 10 31 17 ZW 1037,6 7 0 0,0
18.01.2017 23:00:00 -1,3 -4,0 -1,6 0,0 0,8 4,3 16 9 30 16 WZW 1037,8 7 0 0,0
18.01.2017 22:00:00 -1,2 -4,0 -1,6 0,0 0,8 4,3 21 11 32 18 ZW 1037,6 8 0 0,0
18.01.2017 21:00:00 -1,2 -3,9 -1,8 0,0 0,8 4,3 20 11 31 17 WZW 1037,8 8 0 0,0
18.01.2017 20:00:00 -0,9 -3,8 -1,4 0,0 0,8 4,3 18 10 29 16 WZW 1037,9 9 0 0,0
18.01.2017 19:00:00 -0,8 -3,7 -1,3 0,0 0,8 4,3 17 9 29 16 ZW 1038,1 9 0 0,0
18.01.2017 18:00:00 -0,5 -3,4 -1,0 0,0 0,8 4,3 15 8 24 13 ZW 1038,4 10 0 0,0
18.01.2017 17:00:00 -0,4 -3,3 -0,8 0,0 0,8 4,4 13 7 23 12 ZW 1038,8 10 0 0,0
18.01.2017 16:00:00 -0,1 -3,1 -0,2 0,0 0,8 4,4 12 6 25 14 ZW 1038,7 10 0 0,0
18.01.2017 15:00:00 0,2 -2,9 -0,1 0,0 0,8 4,4 13 7 21 12 ZW 1038,5 12 0 0,0
18.01.2017 14:00:00 0,0 -3,1 -0,1 0,0 0,8 4,4 16 9 26 14 ZW 1038,4 11 0 0,0
18.01.2017 13:00:00 -0,4 -3,2 -0,1 0,0 0,8 4,4 15 8 24 13 ZW 1038,9 8 0 0,0
18.01.2017 12:00:00 -0,6 -3,3 -0,3 0,0 0,8 4,4 16 9 24 13 ZW 1039,2 7 0 0,0
18.01.2017 11:00:00 -0,9 -3,3 -0,4 0,0 0,8 4,4 18 10 24 13 WZW 1039,4 7 0 0,0
18.01.2017 10:00:00 -1,2 -3,4 -1,1 0,0 0,8 4,4 18 10 26 14 WZW 1039,2 6 0 0,0
18.01.2017 09:00:00 -1,5 -3,5 -1,8 0,0 0,8 4,4 18 10 24 13 WZW 1039,1 6 0 0,0
18.01.2017 08:00:00 -1,9 -3,8 -2,2 0,0 0,8 4,4 18 10 22 12 WZW 1038,5 7 0 0,0
18.01.2017 07:00:00 -1,9 -3,7 -1,9 0,0 0,8 4,4 16 9 21 11 WZW 1038,3 6 0 0,0
18.01.2017 06:00:00 -1,8 -3,8 -2,0 0,0 0,8 4,4 16 8 23 12 WZW 1038,3 8 0 0,0
18.01.2017 05:00:00 -2,0 -4,1 -2,1 0,0 0,8 4,4 14 7 19 10 WZW 1038,7 8 0 0,0
18.01.2017 04:00:00 -2,0 -4,5 -2,4 0,0 0,8 4,4 16 8 22 12 WZW 1038,8 15 0 0,0
18.01.2017 03:00:00 -2,1 -4,7 -3,1 0,0 0,8 4,4 17 9 24 13 WZW 1038,9 16 0 0,0
18.01.2017 02:00:00 -1,9 -4,8 -2,8 0,0 0,8 4,4 19 10 24 13 WZW 1039,0 18 0 0,0
18.01.2017 01:00:00 -1,7 -4,8 -2,5 0,0 0,8 4,4 18 10 24 13 WZW 1038,8 24 0 0,0
18.01.2017 00:00:00 -1,5 -4,6 -2,5 0,0 0,8 4,4 16 9 22 12 WZW 1038,8 30 0 0,0
17.01.2017 23:00:00 -1,7 -4,4 -2,4 0,0 0,8 4,4 10 6 18 10 ZW 1039,0 24 0 0,0
17.01.2017 22:00:00 -1,6 -4,0 -2,4 0,0 0,8 4,4 12 7 18 10 WZW 1039,1 26 0 0,0
17.01.2017 21:00:00 -2,2 -4,0 -3,2 0,0 0,8 4,4 8 4 10 5 ZW 1039,1 19 0 0,0
17.01.2017 20:00:00 -2,1 -3,6 -3,1 0,0 0,8 4,4 7 4 10 5 WZW 1038,9 20 0 0,0
17.01.2017 19:00:00 -2,3 -3,9 -3,2 0,0 0,8 4,4 6 4 8 5 WZW 1038,7 23 0 0,0
17.01.2017 18:00:00 -1,9 -3,6 -3,6 0,0 0,8 4,4 6 3 7 4 ZW 1038,2 31 0 0,0
17.01.2017 17:00:00 -1,8 -3,9 -3,2 0,0 0,8 4,4 4 2 6 3 W 1037,8 64 0 0,0
17.01.2017 16:00:00 -1,0 -3,8 -1,9 0,0 0,8 4,4 5 3 9 5 NW 1037,7 70 0 0,0
17.01.2017 15:00:00 -0,7 -4,0 -0,7 0,0 0,8 4,4 6 3 10 6 NNW 1037,6 65 0 0,0
17.01.2017 14:00:00 -0,1 -3,5 0,0 0,0 0,8 4,4 6 3 16 9 N 1037,3 49 0 0,0
17.01.2017 13:00:00 -0,3 -3,0 -0,1 0,0 0,8 4,4 11 6 18 10 NNW 1037,3 37 0 0,0
17.01.2017 12:00:00 -0,4 -3,0 -0,3 0,0 0,8 4,4 11 6 16 9 NNW 1036,8 25 0 0,0
17.01.2017 11:00:00 -0,7 -2,8 -0,7 0,0 0,8 4,4 7 4 14 8 NW 1036,4 39 0 0,0
17.01.2017 10:00:00 -0,9 -2,5 -1,5 0,0 0,8 4,4 7 4 10 5 NNW 1036,1 33 0 0,0
17.01.2017 09:00:00 -1,2 -2,8 -1,7 0,0 0,8 4,4 8 5 15 8 NW 1035,6 38 0 0,0
17.01.2017 08:00:00 -1,2 -3,1 -1,8 0,0 0,8 4,4 8 4 13 7 NW 1034,8 51 0 0,0
17.01.2017 07:00:00 -1,1 -2,8 -1,9 0,0 0,8 4,4 9 5 14 7 NW 1034,0 38 0 0,0
17.01.2017 06:00:00 -1,4 -3,1 -1,8 0,0 0,8 4,4 10 6 16 9 NW 1033,6 36 0 0,4
17.01.2017 05:00:00 -1,1 -3,9 -2,1 -0,1 0,8 4,4 11 6 17 9 NW 1033,2 12 0 0,0
17.01.2017 04:00:00 -1,3 -4,7 -2,7 -0,1 0,8 4,4 11 6 19 11 NW 1032,9 70 0 0,0
17.01.2017 03:00:00 -2,7 -5,2 -4,8 -0,1 0,8 4,4 10 6 15 8 NW 1032,6 70 0 0,0
17.01.2017 02:00:00 -5,3 -7,3 -9,0 -0,1 0,8 4,4 10 5 13 7 NW 1032,0 64 0 0,0
17.01.2017 01:00:00 -4,2 -5,9 -8,0 -0,1 0,8 4,4 5 3 11 6 NNW 1031,7 51 0 0,0
17.01.2017 00:00:00 -3,2 -5,2 -4,3 -0,1 0,8 4,4 6 4 10 5 NNW 1031,1 68 0 0,0
16.01.2017 23:00:00 -4,1 -5,9 -6,6 -0,1 0,8 4,4 5 3 9 5 NW 1030,7 70 0 0,0
16.01.2017 22:00:00 -5,4 -6,6 -9,5 -0,1 0,8 4,4 4 2 7 4 NW 1030,0 40 0 0,0
16.01.2017 21:00:00 -5,4 -6,8 -8,9 -0,1 0,8 4,4 4 2 8 5 NW 1029,4 70 0 0,0
16.01.2017 20:00:00 -5,6 -7,2 -10,1 -0,1 0,8 4,4 5 3 8 5 NW 1028,5 57 0 0,0
16.01.2017 19:00:00 -5,3 -6,8 -9,5 -0,1 0,8 4,4 7 4 14 7 N 1028,0 70 0 0,0
16.01.2017 18:00:00 -3,0 -6,0 -8,4 -0,1 0,8 4,4 11 6 17 9 NNW 1027,4 70 0 0,0
16.01.2017 17:00:00 -3,7 -6,4 -8,7 0,0 0,8 4,5 11 6 18 10 NW 1027,0 70 11 0,0
16.01.2017 16:00:00 -2,5 -6,0 -6,0 0,0 0,8 4,5 8 4 15 8 NNW 1026,7 70 60 0,0
16.01.2017 15:00:00 -1,3 -5,7 -3,5 0,0 0,8 4,5 10 5 18 10 NNW 1026,1 29 60 0,0
16.01.2017 14:00:00 -0,3 -5,0 -2,2 0,0 0,8 4,5 14 7 20 11 N 1025,7 15 60 0,0
16.01.2017 13:00:00 -0,4 -4,9 -1,2 0,0 0,8 4,5 12 6 22 12 N 1025,5 15 60 0,0

tt = temperatuur
td = dauwpunt
tt 5cm = temperatuur 5cm
tt -5cm = temperatuur -5cm
tt -20cm = temperatuur -20cm
tt -100cm = temperatuur -100cm
ff = windsnelheid
fx = windstoten
dd = windrichting
ppp = luchtdruk
vv = zicht
sd = Zonneschijnduur
rr = neerslag

Weerstations in de omgeving